This is the latest recevied weather packets stored in our database for station/object KD8FRE. If no packets are shown the sender has not sent any weather packets the latest 1 day(s).
| Time | Temp. | Humidity | Pressure | Rain* | Wind** | Luminosity | Snow |
|---|---|---|---|---|---|---|---|
| 1778080149 | 8.33° C | 54% | 1013 hPa | 0 mm | - | 135 W/m² | - |
| 1778077423 | 8.33° C | 64% | 1012.7 hPa | 0 mm | - | 380 W/m² | - |
| 1778077121 | 7.78° C | 65% | 1012.5 hPa | 0 mm | - | 264 W/m² | - |
| 1778076213 | 7.22° C | 68% | 1012.7 hPa | 0 mm | - | 130 W/m² | - |
| 1778075910 | 7.22° C | 66% | 1012.4 hPa | 0 mm | - | 154 W/m² | - |
| 1778075303 | 7.22° C | 67% | 1012.2 hPa | 0 mm | - | 292 W/m² | - |
| 1778074697 | 7.22° C | 68% | 1012.4 hPa | 0 mm | - | 244 W/m² | - |
| 1778072878 | 7.22° C | 73% | 1011.9 hPa | 0 mm | - | 222 W/m² | - |
| 1778072575 | 6.67° C | 76% | 1011.7 hPa | 0 mm | - | 182 W/m² | - |
| 1778072273 | 7.22° C | 76% | 1011.8 hPa | 0 mm | - | 104 W/m² | - |
| 1778071669 | 6.67° C | 77% | 1011.5 hPa | 0 mm | - | 202 W/m² | - |
| 1778071366 | 7.22° C | 76% | 1011.4 hPa | 0 mm | - | 153 W/m² | - |
| 1778070762 | 6.67° C | 76% | 1011.4 hPa | 0 mm | - | 117 W/m² | - |
| 1778069854 | 6.67° C | 74% | 1011.2 hPa | 0 mm | - | 86 W/m² | - |
| 1778069550 | 6.67° C | 73% | 1011 hPa | 0 mm | - | 100 W/m² | - |
| 1778068643 | 6.11° C | 70% | 1011.2 hPa | 0 mm | - | 62 W/m² | - |
| 1778068341 | 6.67° C | 70% | 1010.9 hPa | 0 mm | - | 55 W/m² | - |
| 1778067434 | 6.11° C | 68% | 1010.7 hPa | 0 mm | - | 57 W/m² | - |
| 1778065315 | 6.11° C | 68% | 1010.3 hPa | 0 mm | - | 12 W/m² | - |
| 1778064708 | 6.11° C | 66% | 1010 hPa | 0 mm | - | 8 W/m² | - |
| 1778062893 | 6.67° C | 64% | 1010.1 hPa | 0 mm | - | 1 W/m² | - |
| 1778062286 | 6.67° C | 61% | 1009.9 hPa | 0 mm | - | 0 W/m² | - |
| 1778061985 | 7.22° C | 61% | 1009.9 hPa | 0 mm | - | 0 W/m² | - |
| 1778061381 | 7.22° C | 60% | 1009.5 hPa | 0 mm | - | 0 W/m² | - |
| 1778060775 | 7.22° C | 60% | 1009.3 hPa | 0 mm | - | 0 W/m² | - |
* Rain latest hour (hover to see other rain measurements)
** Current wind speed in m/s (hover to see current wind gust speed)